Dewpoint
31 30 29 28 29 30 29 28 25 25 26 26 26 27 28 29 29 27 31 31 31 30 31 33 33 33 35 36 36 35 36 38 38 37 39 39 40 41 43 43 44 44 47 48
30 28 30 31 31 30 30 27 25 26 27 30 28 28 29 29 29 28 30 30 29 29 32 32 32 33 34 35 35 34 35 35 37 39 40 41 40 42 42 43 43 44 44 45
30 30 31 30 30 27 27 25 26 27 31 31 30 29 29 27 28 29 29 27 27 29 29 30 32 34 35 34 32 31 33 34 35 36 38 37 37 37 39 40 40 43 43 44
31 31 29 29 28 28 26 28 31 31 30 28 31 27 30 27 27 28 26 26 27 28 29 29 31 33 32 32 31 31 33 32 34 35 34 35 35 36 38 39 37 37 41 42
27 27 28 29 29 29 28 32 31 31 30 31 29 29 30 27 26 25 25 25 27 28 28 27 30 29 30 29 30 31 30 30 33 33 35 36 36 37 38 37 36 37 41 42
29 31 32 31 31 32 32 32 32 32 31 29 29 30 30 26 25 25 25 26 27 28 28 28 28 28 27 28 29 29 27 29 32 35 36 36 36 36 35 35 37 37 40 40
31 32 34 33 31 32 30 29 25 25 26 25 30 30 30 25 27 26 25 26 28 29 28 25 24 24 24 25 26 29 30 33 37 37 35 35 35 36 36 37 38 38 38 40
31 28 32 32 32 30 30 29 25 24 24 23 30 28 27 27 27 27 27 28 29 29 25 24 25 24 24 24 26 31 33 36 36 34 34 36 37 38 39 39 39 39 40 39
32 31 34 34 34 33 31 28 32 30 33 31 30 25 25 26 27 27 28 29 27 24 24 24 24 23 22 22 29 32 35 36 34 34 35 37 39 40 40 41 41 41 42 43
34 31 36 35 32 33 32 33 29 32 28 26 30 29 26 24 25 27 27 28 28 24 23 22 21 22 20 26 33 35 36 35 34 34 36 37 40 41 42 43 42 43 43 41
36 34 33 36 31 31 31 30 34 35 35 28 26 28 30 26 27 27 27 29 27 23 22 21 21 19 21 28 32 35 36 35 34 34 35 36 38 40 41 41 41 41 40 39
41 36 32 34 37 36 36 34 35 29 28 34 33 29 35 30 30 30 28 30 24 21 21 22 20 18 23 29 32 35 35 35 34 34 34 35 37 39 39 41 41 41 41 39
38 35 30 28 31 37 36 37 37 36 37 32 29 27 32 30 31 32 29 24 22 22 19 20 18 21 24 29 32 35 35 35 35 34 34 35 35 37 38 39 40 40 40 39
40 36 31 29 27 32 32 35 35 34 32 30 30 29 31 31 34 36 39 41 40 30 26 17 21 23 26 31 32 33 34 35 35 34 34 33 34 36 37 37 38 38 39 37
39 35 36 36 35 36 36 35 35 34 33 31 29 31 32 34 36 38 40 44 41 26 14 22 22 24 30 31 32 32 34 36 35 34 33 33 33 36 35 35 35 36 36 35
41 36 37 35 37 36 35 35 35 34 34 34 34 33 35 37 39 42 44 44 39 14 17 23 25 26 29 31 32 32 33 35 35 34 34 34 34 33 32 32 34 33 33 33
39 36 34 32 34 34 32 33 33 30 33 33 31 32 24 29 34 29 20 23 13 16 20 25 27 28 29 31 32 32 32 33 33 32 33 33 31 31 31 31 31 31 31 31
37 36 35 33 34 26 28 28 26 26 28 18 19 16 11 13 15 14 14 14 15 16 19 27 28 29 30 30 32 32 32 32 31 31 32 31 31 31 32 31 30 30 30 30
38 37 35 32 31 31 29 25 20 20 21 19 18 18 17 16 14 14 20 24 24 25 26 27 29 30 30 30 30 31 31 31 30 30 30 30 30 30 31 29 29 30 30 30
36 37 36 30 28 24 22 12 15 20 19 19 16 14 14 16 1 9 19 20 23 25 27 27 29 30 30 29 30 30 30 30 29 29 29 30 29 30 30 29 29 28 29 29
31 31 31 31 29 31 27 14 23 25 24 19 14 13 13 13 15 16 21 23 23 24 26 29 29 29 29 28 28 29 30 29 29 29 29 29 29 29 30 30 29 28 28 28
29 29 27 29 27 24 18 21 25 27 24 21 20 17 16 19 21 22 23 24 23 23 23 28 29 29 29 27 28 28 29 29 29 28 27 27 27 29 30 30 28 28 28 27
32 34 30 31 29 31 21 24 26 25 22 22 21 20 19 20 21 24 24 25 26 27 27 28 28 29 31 32 30 28 28 28 27 26 24 24 25 29 30 28 27 27 27 27
35 36 34 33 35 27 27 23 19 19 18 19 21 24 29 29 32 33 34 34 34 35 34 35 34 33 34 34 35 35 35 31 27 24 23 23 25 28 29 28 27 25 25 26
35 36 32 31 30 29 24 20 20 25 28 29 32 33 33 33 31 32 31 31 30 30 30 30 29 29 30 31 32 35 36 36 33 26 23 23 25 27 26 26 27 27 27 27
35 32 29 27 26 25 25 29 30 31 32 32 31 30 30 29 28 28 28 26 24 24 27 26 27 27 27 28 29 31 32 32 32 29 24 24 25 25 25 26 28 28 28 27
Wind_Speed
4 6 16 18 19 14 11 12 13 14 17 6 5 6 10 12 15 27 21 18 21 22 17 20 19 18 18 17 17 17 20 16 17 18 17 16 18 17 16 18 19 21 22 22
6 18 23 19 15 14 15 12 10 14 11 7 7 17 12 8 4 28 30 24 23 19 19 18 16 15 15 14 14 16 17 17 16 14 9 7 9 6 6 12 12 15 18 20
15 18 11 19 17 8 10 7 7 8 11 5 4 7 6 5 13 19 18 20 18 22 21 16 16 15 15 14 11 13 15 14 12 11 8 3 2 7 6 11 11 9 12 15
13 21 21 13 11 8 13 6 1 8 10 13 3 17 19 4 11 13 18 16 17 18 17 16 16 16 14 9 8 12 13 9 7 9 12 13 13 14 11 13 15 16 12 13
8 9 6 6 11 9 11 4 2 6 12 4 27 9 6 12 11 17 17 20 21 20 20 16 21 17 10 9 8 9 7 6 5 10 13 14 14 10 12 16 20 19 14 13
16 13 10 12 1 2 2 3 6 3 5 7 19 5 5 5 6 17 17 19 19 17 15 20 16 13 10 8 10 7 4 8 15 16 17 18 18 18 19 21 20 19 15 12
7 10 9 10 7 3 5 5 6 3 2 11 7 11 11 11 17 28 25 19 19 17 16 16 14 10 8 7 6 5 4 11 11 12 14 15 16 19 19 20 19 21 18 16
2 6 7 3 3 5 3 4 3 6 8 21 13 12 7 6 10 19 20 20 16 14 16 14 12 9 8 6 6 7 12 11 12 13 15 14 14 12 13 14 16 16 14 16
4 5 3 13 4 2 1 1 2 5 3 3 7 5 2 7 11 18 20 17 17 18 15 14 11 9 8 4 8 11 10 9 9 9 10 12 12 12 13 15 14 13 14 13
6 9 3 2 2 10 6 1 4 3 6 8 6 11 15 17 20 19 21 23 18 16 13 12 10 7 4 8 12 11 9 6 4 6 6 7 9 10 10 12 13 13 12 12
7 5 4 2 2 3 3 2 3 1 3 4 11 3 9 20 23 29 25 22 21 17 14 13 10 8 7 10 10 9 7 4 1 2 5 8 10 10 11 11 12 12 14 14
2 4 5 7 1 4 3 4 4 1 5 7 12 15 9 9 18 19 17 16 14 14 13 12 12 9 9 12 10 9 7 4 3 3 6 8 8 8 10 12 13 13 13 10
8 1 2 5 4 3 3 5 4 1 2 15 17 18 8 10 14 14 12 9 10 9 6 9 7 9 8 10 10 10 9 7 3 4 6 7 9 9 8 11 11 12 9 7
6 6 9 17 10 4 6 8 2 4 10 27 22 53 29 17 14 16 14 8 7 10 15 14 12 11 10 14 12 10 8 6 6 6 6 7 8 8 6 9 11 11 9 8
3 5 5 10 8 8 12 9 18 17 25 24 44 35 45 23 17 19 18 15 15 13 15 16 12 8 14 11 10 9 9 9 8 8 9 9 7 8 6 9 11 11 12 11
4 6 2 11 16 18 16 15 18 23 31 32 39 36 30 21 18 18 20 19 17 15 14 13 10 10 11 11 13 12 12 13 9 10 12 10 6 7 7 9 11 11 11 11
6 7 5 22 8 10 17 23 26 17 18 17 23 17 11 8 10 11 10 12 11 11 9 13 14 14 13 13 15 17 15 12 11 12 12 10 7 7 7 6 10 11 12 11
10 8 7 15 5 32 7 2 6 16 8 5 7 6 6 4 7 9 6 6 7 10 14 14 12 13 14 14 15 17 14 14 14 14 13 10 9 8 7 5 8 11 11 11
6 9 7 13 22 20 17 7 2 7 4 5 3 3 5 5 2 1 3 3 3 5 8 13 16 16 15 15 18 16 15 16 15 16 16 13 10 10 8 8 7 10 10 11
5 2 11 5 11 15 3 5 2 2 9 2 4 6 3 1 12 6 6 9 12 15 17 18 19 17 16 20 19 17 20 20 20 19 18 15 13 12 9 9 8 9 10 11
5 3 15 15 12 9 1 4 4 3 2 3 3 4 7 7 8 13 16 18 16 16 18 17 17 20 21 19 17 20 20 22 24 17 16 16 15 13 11 9 7 5 9 11
15 12 9 7 8 12 4 1 4 3 3 6 8 11 11 12 16 17 19 19 20 22 17 17 18 20 18 17 14 17 19 23 19 17 18 17 15 12 9 7 4 4 6 10
10 11 8 12 7 2 8 9 7 8 4 5 5 9 8 11 12 15 16 17 18 21 19 18 16 16 16 19 17 18 24 18 19 18 21 18 13 12 11 8 5 4 6 9
3 5 5 5 6 4 3 4 6 8 4 5 10 13 17 14 15 15 15 17 17 17 20 21 21 21 23 22 18 18 24 28 20 23 22 17 16 15 13 11 10 6 8 10
5 9 8 3 4 4 2 3 4 16 19 19 20 21 19 18 18 16 17 19 19 18 18 18 19 20 18 22 24 22 20 20 19 18 18 18 16 16 12 10 11 9 8 8
9 9 11 7 11 7 11 17 18 22 19 18 18 18 19 19 18 17 16 15 15 16 16 16 17 17 19 19 19 20 20 20 15 12 8 12 13 11 8 7 8 8 11 10
Wind_Direction
239 207 240 230 214 233 245 262 273 291 296 340 312 310 312 314 123 145 146 138 132 126 127 117 109 106 101 84 73 64 63 57 49 37 22 27 20 16 10 8 0 0 354 347
264 250 242 253 246 235 244 246 291 303 326 345 294 296 285 333 146 165 155 150 143 133 124 123 114 107 92 93 81 66 62 53 45 43 36 30 12 2 351 358 355 354 343 338
229 252 284 238 256 228 274 280 293 302 331 279 305 275 269 42 80 132 146 142 140 136 132 125 122 107 103 95 87 77 72 64 53 46 44 32 17 2 5 350 340 330 328 327
245 250 245 225 227 236 261 260 351 337 349 309 8 288 292 152 108 128 141 143 140 136 128 124 119 116 114 116 96 80 81 70 55 37 35 32 17 359 336 332 327 330 323 325
241 298 333 289 251 264 252 233 302 302 297 325 288 280 247 145 160 160 152 144 142 142 138 130 130 131 122 103 86 90 68 41 37 36 42 32 7 343 324 323 322 318 311 322
257 274 284 262 226 249 236 1 335 319 285 273 273 331 244 231 186 161 156 151 147 142 132 127 132 130 123 109 89 79 48 19 29 36 24 12 357 343 331 324 320 316 310 313
306 266 258 232 214 130 79 44 311 307 295 261 297 332 265 291 271 177 163 155 152 147 130 132 129 122 121 117 98 160 93 80 64 43 21 4 352 340 334 327 319 312 307 307
256 296 348 14 159 173 65 148 213 276 273 282 301 263 276 353 117 142 144 151 153 140 140 141 146 145 145 144 153 117 106 83 50 28 7 358 345 331 314 306 301 300 297 296
211 233 39 48 54 135 156 81 327 282 338 304 243 328 240 109 132 148 157 157 155 155 159 161 166 163 165 117 91 119 105 83 51 24 1 352 338 331 317 311 312 314 310 310
232 244 13 348 30 45 95 36 335 339 297 296 278 288 252 191 186 180 178 177 172 166 166 171 175 165 138 121 141 124 106 92 52 15 351 331 318 319 329 327 329 332 343 347
155 196 207 185 169 157 14 23 67 160 211 275 303 211 347 230 206 197 195 185 175 176 179 177 183 184 144 138 140 140 142 153 188 336 344 336 319 331 331 324 323 331 330 339
25 130 225 247 5 100 139 174 159 182 267 236 263 285 255 263 224 224 198 179 178 177 189 199 191 177 152 157 161 173 184 210 247 313 328 322 322 321 333 327 328 334 326 341
153 182 261 318 323 74 142 152 119 273 217 253 270 278 207 196 193 174 183 163 188 199 199 184 176 165 178 184 182 193 209 229 257 289 297 320 323 317 334 328 330 338 352 347
97 181 217 253 249 155 200 192 253 252 269 280 263 279 286 249 190 176 192 193 195 223 221 200 176 192 199 184 194 206 228 234 250 273 297 312 305 298 318 330 327 326 322 325
127 256 248 260 244 250 248 229 256 248 255 266 277 280 280 292 232 217 227 227 226 212 196 186 191 187 174 187 204 222 236 231 246 270 269 275 281 277 300 328 325 323 323 338
103 269 258 272 266 259 261 248 256 251 260 268 269 273 286 279 253 216 229 210 208 200 197 192 191 187 194 205 217 229 236 232 237 256 264 268 270 301 326 325 320 320 321 322
180 185 211 276 255 307 275 248 246 249 242 249 266 283 352 343 299 199 164 168 179 198 208 206 206 203 207 214 218 224 231 228 235 254 265 275 282 306 314 326 321 316 314 317
190 183 187 277 296 273 253 176 260 254 247 335 19 35 39 66 95 112 127 170 218 246 250 216 213 219 225 229 229 231 226 223 235 253 257 261 268 283 288 299 301 304 312 323
199 179 238 257 265 287 290 279 249 221 237 13 103 74 33 19 20 73 46 51 306 279 248 240 237 236 238 237 242 234 235 233 237 253 254 244 241 257 271 284 290 298 312 320
77 118 204 194 271 279 145 145 19 352 255 51 62 45 20 348 326 285 253 269 266 265 258 255 246 237 235 243 248 242 238 229 236 247 247 225 227 233 245 262 276 309 311 310
162 190 220 232 252 271 187 120 45 224 280 345 15 340 325 310 268 275 290 289 286 288 288 254 238 237 244 259 264 258 248 234 226 239 236 215 221 224 228 242 244 282 305 305
185 190 198 200 235 276 131 45 196 206 220 230 233 246 264 283 293 296 296 294 298 295 279 265 264 267 272 285 276 268 256 237 222 223 215 212 219 215 203 210 242 280 295 295
208 200 205 202 213 99 46 40 304 240 256 323 328 318 312 308 326 339 343 359 5 5 2 359 350 347 351 349 319 296 273 236 235 224 211 213 211 191 181 187 209 248 275 290
186 162 194 169 188 202 40 271 84 80 59 1 4 27 49 48 31 23 18 13 9 13 11 360 359 2 349 338 345 345 327 280 236 215 209 203 187 184 180 190 197 213 271 285
176 150 160 194 201 222 112 82 45 55 54 55 61 54 45 41 31 22 28 24 15 9 5 3 357 347 356 345 345 349 341 315 290 253 208 195 188 181 187 201 203 203 240 259
180 169 180 200 196 160 86 68 74 72 64 62 55 46 41 40 33 27 26 13 4 357 352 349 349 346 345 339 341 352 352 357 355 319 250 213 189 175 180 212 193 213 232 256